Butte, MT

1:23 PM MDT on September 30, 2016 (GMT -0600)
Mooney

Weather History for KBTM - July, 2013

Change the Weather History Date:

Friday, July 26, 2013

  Actual Average Record
Temperature  
Mean Temperature 70 °F 65 °F  
Max Temperature 90 °F 83 °F 96 °F (1931)
Min Temperature 49 °F 47 °F 36 °F (1999)
Degree Days  
Heating Degree Days 0 2  
Month to date heating degree days 10 89  
Since 1 June heating degree days 253 376  
Since 1 July heating degree days 10 89  
Cooling Degree Days 5 2  
Month to date cooling degree days 67 39  
Year to date cooling degree days 80 46  
Since 1 June cooling degree days 80 46  
Growing Degree Days 19 (Base 50)    
Moisture  
Dew Point 35 °F    
Average Humidity 41    
Maximum Humidity 71    
Minimum Humidity 10    
Precipitation  
Precipitation T in 0.04 in 1.10 in (1909)
Month to date precipitation 0.63 1.14  
Year to date precipitation 5.59 8.31  
Sea Level Pressure  
Sea Level Pressure 30.05 in    
Wind  
Wind Speed 7 mph (SE)    
Max Wind Speed 22 mph    
Max Gust Speed 30 mph    
Visibility 10 miles    
Events      
T = Trace of Precipitation, MM = Missing Value Source: NWS Daily Summary

Daily Weather History Graph

Daily Weather History Graph

Search for Another Location

Airport or City:

Trip Planner

Search our weather history database for the weather conditions in past years. The results will help you decide how hot, cold, wet, or windy it might be!

Date:

Astronomy

Jul. 26, 2013 Rise Set
Actual Time 6:05 AM MDT 9:06 PM MDT
Civil Twilight 5:30 AM MDT 9:41 PM MDT
Nautical Twilight 4:45 AM MDT 10:26 PM MDT
Astronomical Twilight 3:50 AM MDT 11:20 PM MDT
Moon 11:02 PM MDT (7/26) 11:05 AM MDT (7/26)
Length of Visible Light 16h 10m
Length of Day
15h 00m
Waning Gibbous, 79% of the Moon is Illuminated
Jul 26
Waning Gibbous
Jul 29
Last Quarter
Aug 6
New
Aug 14
First Quarter
Aug 20
Full

Hourly Weather History & Observations

Time (MDT) Temp. Dew Point Humidity Pressure Visibility Wind Dir Wind Speed Gust Speed Precip Events Conditions
12:53 AM 63.0 °F 39.9 °F 43% 30.07 in 10.0 mi ESE 6.9 mph - N/A   Mostly Cloudy
1:53 AM 63.0 °F 39.9 °F 43% 30.06 in 10.0 mi SE 4.6 mph - N/A   Mostly Cloudy
2:53 AM 60.1 °F 39.9 °F 47% 30.06 in 10.0 mi ENE 3.5 mph - N/A   Mostly Cloudy
3:53 AM 55.9 °F 39.0 °F 53% 30.08 in 10.0 mi SE 3.5 mph - N/A   Clear
4:53 AM 52.0 °F 39.0 °F 61% 30.09 in 10.0 mi SSE 6.9 mph - N/A   Clear
5:53 AM 51.1 °F 39.9 °F 66% 30.10 in 10.0 mi Calm Calm - N/A   Clear
6:53 AM 48.9 °F 39.0 °F 69% 30.12 in 10.0 mi SSE 3.5 mph - N/A   Clear
7:53 AM 57.0 °F 41.0 °F 55% 30.12 in 10.0 mi Calm Calm - N/A   Clear
8:53 AM 63.0 °F 43.0 °F 48% 30.12 in 10.0 mi Calm Calm - N/A   Clear
9:53 AM 72.0 °F 43.0 °F 35% 30.11 in 10.0 mi Calm Calm - N/A   Clear
10:53 AM 78.1 °F 32.0 °F 19% 30.09 in 10.0 mi NNE 4.6 mph - N/A   Clear
11:53 AM 81.0 °F 30.0 °F 16% 30.08 in 10.0 mi Variable 3.5 mph - N/A   Clear
12:53 PM 84.0 °F 32.0 °F 15% 30.05 in 10.0 mi SE 8.1 mph - N/A   Clear
1:53 PM 84.9 °F 30.0 °F 14% 30.02 in 10.0 mi NNE 6.9 mph - N/A   Clear
2:53 PM 89.1 °F 27.0 °F 11% 29.99 in 10.0 mi NW 9.2 mph - N/A   Clear
3:53 PM 90.0 °F 28.0 °F 11% 29.99 in 10.0 mi NNW 8.1 mph - N/A   Clear
4:53 PM 89.1 °F 27.0 °F 11% 29.99 in 10.0 mi NW 19.6 mph 26.5 mph N/A   Clear
5:53 PM 87.1 °F 26.1 °F 11% 29.99 in 10.0 mi NW 16.1 mph 26.5 mph N/A   Clear
6:53 PM 84.9 °F 28.0 °F 13% 30.00 in 10.0 mi NW 13.8 mph 21.9 mph N/A   Clear
7:53 PM 81.0 °F 33.1 °F 18% 30.00 in 10.0 mi West 17.3 mph 26.5 mph N/A   Partly Cloudy
8:53 PM 79.0 °F 32.0 °F 18% 30.01 in 10.0 mi West 13.8 mph 24.2 mph N/A   Overcast
9:53 PM 73.9 °F 36.0 °F 25% 30.00 in 10.0 mi SW 6.9 mph - 0.00 in   Scattered Clouds
10:53 PM 69.1 °F 37.0 °F 31% 29.99 in 10.0 mi SE 9.2 mph - N/A   Mostly Cloudy
11:53 PM 62.1 °F 36.0 °F 38% 30.01 in 10.0 mi SE 6.9 mph - N/A   Scattered Clouds